#timestamp,LO_Frequency,Hit,StdDev 
1674874815.7,286047000.7,N
1674874835.5,286046998.5,N
1674874855.3,286046998.5,N
1674874875.2,286046998.2,N
1674874895.0,286046998.5,N
1674874895.9,286046998.5,N
1674874915.7,286047001.0,N
1674874935.6,286046998.7,N
1674874955.4,286047000.7,N
1674874975.2,286047000.4,N
1674874995.1,286046998.3,N
1674874996.0,286046998.3,N
1674875015.8,286046998.9,N
1674875035.6,286046999.5,N
1674875055.5,286046997.1,N
1674875075.3,286046997.7,N
1674875095.1,286046997.1,N
1674875115.9,286046997.7,N
1674875135.7,286046993.9,Y
1674875155.6,286046998.8,P
1674875175.4,286046997.5,P
1674875195.2,286046997.6,P
1674875215.1,286046997.4,Y
1674875216.0,286046997.4,P
1674875235.8,286047000.4,N
1674875255.6,286047000.9,N
1674875275.5,286047001.2,N
1674875295.3,286047001.0,N
1674875315.1,286046998.5,N
1674875335.9,286047000.9,N
1674875355.7,286046998.4,N
1674875375.5,286046999.3,N
1674875395.4,286047000.8,N
1674875415.2,286046998.3,N
1674875435.0,286046998.7,N
1674875435.9,286046998.7,N
1674875455.8,286046999.2,N
1674875475.6,286046999.2,N
1674875495.4,286046998.6,N
1674875515.2,286046999.3,N
1674875535.1,286046996.8,N
1674875536.0,286046996.8,N
1674875555.8,286046996.6,N
1674875575.6,286046997.0,N
1674875595.5,286046997.0,N
1674875615.3,286046997.0,N
1674875635.1,286046998.9,N
1674875655.9,286046999.3,N
1674875675.7,286046999.1,N
1674875695.5,286046997.6,N
1674875715.4,286046995.2,Y
1674875735.2,286046999.6,P
1674875755.0,286046999.6,N
1674875755.9,286046999.6,N
1674875775.8,286046999.6,N
1674875795.6,286046999.3,N
1674875815.4,286046997.4,Y
1674875835.3,286046996.8,P
1674875855.1,286046999.6,N
1674875875.8,286046998.5,N
1674875895.7,286046997.0,N
1674875915.5,286046997.6,N
1674875935.3,286046996.8,N
1674875955.2,286046996.7,N
1674875975.0,286046999.6,N
1674875975.9,286046999.6,N
1674875995.7,286046996.5,N
1674876015.6,286046998.5,N
1674876035.4,286046999.5,N
1674876055.2,286046996.5,N
1674876075.1,286046996.5,N
1674876076.0,286046996.5,N
1674876095.8,286046997.8,N
1674876115.6,286046997.1,N
1674876135.5,286046998.3,N
1674876155.3,286046998.9,N
1674876175.1,286046999.2,N
1674876195.9,286046996.5,N
1674876215.7,286046997.4,N
1674876235.5,286046995.3,Y
1674876255.4,286046998.7,P
1674876275.2,286046999.0,N
1674876295.0,286046999.4,N
1674876295.9,286046999.4,N
1674876315.8,286046998.2,Y
1674876335.6,286047000.7,P
1674876355.4,286046999.7,N
1674876375.3,286046999.8,N
1674876395.1,286047000.0,N
1674876415.8,286046999.8,N
1674876435.7,286046999.9,N
1674876455.5,286047002.2,Y
1674876475.3,286047000.9,P
1674876495.2,286047000.2,N
1674876515.0,286047002.3,P
1674876515.9,286047002.3,N
1674876535.7,286046999.7,N
1674876555.6,286047000.0,N
1674876575.4,286047000.0,N
1674876595.2,286047002.3,N
1674876615.1,286046999.9,N
1674876616.0,286046999.9,N
1674876635.8,286047002.5,N
1674876655.6,286047000.6,N
1674876675.5,286046998.2,N
1674876695.3,286047000.7,N
1674876715.1,286047001.1,N
1674876735.9,286046999.4,N
1674876755.7,286047000.7,N
1674876775.5,286047000.4,N
1674876795.4,286046998.2,N
1674876815.2,286047000.7,N
1674876835.0,286047002.8,N
1674876835.9,286047002.8,N
1674876855.8,286047000.7,N
1674876875.6,286047001.1,N
1674876895.4,286047000.1,N
1674876915.3,286046998.8,N
1674876935.1,286046999.6,N
1674876936.0,286046999.6,N
1674876955.8,286046998.3,N
1674876975.7,286046998.5,N
1674876995.5,286047000.8,N
1674877015.3,286047000.9,N
1674877035.2,286047001.2,N
1674877055.9,286047000.8,N
1674877075.7,286047000.5,N
1674877095.6,286047002.8,N
1674877115.4,286047000.4,N
1674877135.2,286047000.5,N
1674877155.1,286047000.7,N
1674877156.0,286047000.7,N
1674877175.8,286046998.7,N
1674877195.6,286046999.5,N
1674877215.5,286046998.7,N
1674877235.3,286046999.4,N
1674877255.1,286046998.5,N
1674877275.9,286046998.9,N
1674877295.7,286046999.4,N
1674877315.5,286046998.8,N
1674877335.4,286046998.2,N
1674877355.2,286047000.1,N
1674877375.0,286046998.2,N
1674877375.9,286046998.2,N
1674877395.8,286046998.3,N
1674877415.6,286046998.9,N
1674877435.4,286046998.6,N
1674877455.3,286047000.0,N
1674877475.1,286046998.2,N
1674877476.0,286046998.2,N
1674877495.8,286046999.1,N
1674877515.7,286046996.5,Y
1674877535.5,286046998.6,P
1674877555.3,286047000.4,N
1674877575.2,286047000.3,N
1674877595.9,286046999.9,N
1674877615.7,286047002.6,Y
1674877635.6,286047000.6,P
1674877655.4,286046997.0,P
1674877675.2,286046998.2,N
1674877695.1,286046997.2,N
1674877696.0,286046997.2,N
1674877715.8,286046996.5,N
1674877735.6,286047011.2,Y
1674877755.5,286047015.6,P
1674877775.3,286046993.7,N
1674877795.1,286046999.8,N
1674877815.9,286047002.3,N
1674877835.7,286047002.7,N
1674877855.5,286047003.1,N
1674877875.3,286047004.2,N
1674877895.2,286047004.4,N
1674877915.0,286047010.6,N
1674877915.9,286047010.6,N
1674877935.7,286047008.2,N
1674877955.6,286047031.1,Y
1674877975.4,286047017.8,P
1674877995.2,286047008.1,N
1674878015.1,286047001.4,N
1674878016.0,286047001.4,N
1674878035.8,286046996.9,N
1674878055.6,286046993.6,N
1674878075.5,286046993.2,N
1674878095.3,286046990.8,N
1674878115.1,286046991.4,N
1674878135.9,286046990.7,N
1674878155.7,286046991.3,N
1674878175.5,286046988.9,N
1674878195.4,286046988.8,N
1674878215.2,286046989.1,N
1674878235.0,286046987.6,N
1674878235.9,286046987.6,N
1674878255.8,286046988.2,N
1674878275.6,286046985.3,N
1674878295.4,286046985.4,N
1674878315.3,286046985.6,N
1674878335.1,286046988.3,N
1674878355.8,286046985.7,N
1674878375.7,286046987.2,N
1674878395.5,286046985.8,N
